TimeMDT,TemperatureF,Dew PointF,Humidity,Sea Level PressureIn,VisibilityMPH,Wind Direction,Wind SpeedMPH,Gust SpeedMPH,PrecipitationIn,Events,Conditions,WindDirDegrees,DateUTC
12:53 AM,45.0,26.1,48,29.74,10.0,West,3.5,-,N/A,,Clear,260,2012-11-02 06:53:00
1:53 AM,46.9,24.1,41,29.72,10.0,NW,3.5,-,N/A,,Mostly Cloudy,320,2012-11-02 07:53:00
2:53 AM,45.0,24.1,44,29.76,10.0,West,4.6,-,N/A,,Mostly Cloudy,260,2012-11-02 08:53:00
3:53 AM,45.0,23.0,42,29.75,10.0,Calm,Calm,-,N/A,,Overcast,0,2012-11-02 09:53:00
4:53 AM,45.0,25.0,46,29.78,10.0,WNW,3.5,-,N/A,,Overcast,300,2012-11-02 10:53:00
5:53 AM,45.0,28.0,52,29.83,10.0,North,5.8,-,N/A,,Mostly Cloudy,350,2012-11-02 11:53:00
6:53 AM,43.0,28.9,58,29.87,10.0,NNW,5.8,-,N/A,,Mostly Cloudy,330,2012-11-02 12:53:00
7:53 AM,39.9,32.0,73,29.93,10.0,WNW,5.8,-,N/A,,Clear,300,2012-11-02 13:53:00
8:53 AM,45.0,30.9,58,29.95,10.0,WNW,3.5,-,N/A,,Clear,290,2012-11-02 14:53:00
9:53 AM,46.0,28.9,51,29.98,10.0,NW,10.4,16.1,N/A,,Clear,310,2012-11-02 15:53:00
10:53 AM,48.9,25.0,39,29.97,10.0,NNW,8.1,23.0,N/A,,Clear,330,2012-11-02 16:53:00
11:53 AM,50.0,24.1,36,29.98,10.0,WNW,13.8,23.0,N/A,,Clear,300,2012-11-02 17:53:00
12:53 PM,51.1,25.0,36,29.95,10.0,Variable,4.6,20.7,N/A,,Clear,0,2012-11-02 18:53:00
1:53 PM,51.1,26.1,38,29.94,10.0,NW,13.8,24.2,N/A,,Partly Cloudy,310,2012-11-02 19:53:00
2:53 PM,51.1,26.1,38,29.95,10.0,WNW,10.4,20.7,N/A,,Mostly Cloudy,300,2012-11-02 20:53:00
3:53 PM,46.9,25.0,42,29.98,10.0,West,10.4,20.7,N/A,,Mostly Cloudy,280,2012-11-02 21:53:00
4:53 PM,46.0,24.1,42,30.00,10.0,West,8.1,-,N/A,,Partly Cloudy,260,2012-11-02 22:53:00
5:53 PM,44.1,25.0,47,30.03,10.0,WNW,5.8,-,N/A,,Partly Cloudy,290,2012-11-02 23:53:00
6:53 PM,39.0,24.1,55,30.09,10.0,WNW,4.6,-,N/A,,Clear,290,2012-11-03 00:53:00
7:53 PM,39.9,24.1,53,30.09,10.0,WNW,3.5,-,N/A,,Clear,300,2012-11-03 01:53:00
8:53 PM,37.9,24.1,57,30.09,10.0,NNW,3.5,-,N/A,,Clear,330,2012-11-03 02:53:00
9:53 PM,37.0,24.1,59,30.10,10.0,NNW,3.5,-,N/A,,Clear,340,2012-11-03 03:53:00
10:53 PM,37.0,25.0,62,30.09,10.0,Variable,4.6,-,N/A,,Clear,0,2012-11-03 04:53:00
11:53 PM,32.0,24.1,73,30.13,10.0,Calm,Calm,-,N/A,,Clear,0,2012-11-03 05:53:00